Lapse_Rate
8.6 8.6 8.5 8.7 7.9 8.4 8.7 7.2 5.8 5.7 6.8 6.5 6.7 6.6 6.6 6.5 6.6 6.1 6.4 6.0 5.9 5.7 5.6 5.7 5.7 5.8 5.6 5.8 5.2 5.8 5.5 5.5 5.9 5.2 5.2 4.2 2.5 1.8 1.8 2.0 2.0 1.7 1.9
8.7 8.9 8.9 7.7 7.8 8.2 8.3 7.7 7.5 6.7 7.5 7.2 7.1 5.9 5.6 6.3 5.3 4.6 4.1 4.1 5.4 5.7 5.7 5.0 4.6 4.9 4.4 4.7 4.9 4.6 4.6 5.1 5.4 5.5 5.4 3.2 2.3 1.8 1.8 1.4 1.5 1.5 1.7
8.7 9.0 8.8 6.9 6.8 7.8 7.9 7.8 6.9 6.7 7.5 7.8 7.3 6.8 6.5 6.3 5.9 4.7 3.9 3.8 3.8 3.3 3.5 3.6 3.5 4.2 4.0 4.2 4.5 5.4 5.5 4.9 4.6 5.1 5.0 4.3 3.1 2.7 2.1 1.8 1.9 1.5 1.7
9.0 8.9 8.3 6.9 6.7 8.0 8.0 7.8 6.5 7.1 7.9 7.4 7.6 7.6 6.9 6.0 6.6 5.6 4.8 4.7 4.5 4.2 3.6 3.1 2.6 2.7 3.6 4.1 3.6 4.1 4.7 4.6 5.0 4.9 3.9 4.0 3.8 3.5 3.3 2.7 2.0 1.7 1.8
8.7 8.8 8.3 7.5 7.1 8.5 7.2 7.0 6.9 7.5 7.7 6.9 7.0 7.8 6.7 5.8 5.1 5.8 6.2 5.6 5.3 5.0 4.8 4.1 3.1 3.2 2.9 3.4 4.9 4.5 5.3 5.2 4.5 4.2 3.8 3.7 3.6 3.7 3.8 2.8 2.3 2.1 2.1
8.6 8.6 8.6 7.4 7.1 8.1 6.9 5.8 6.1 5.8 6.3 7.0 5.9 5.3 5.3 5.1 1.7 3.1 5.1 7.1 7.2 7.4 6.1 5.1 5.0 4.5 3.2 3.1 3.7 4.0 4.8 5.9 5.3 5.0 4.7 4.9 4.7 4.8 4.2 3.9 3.4 4.7 4.4
8.7 8.6 8.5 6.6 6.9 7.8 7.1 5.7 5.8 5.5 6.7 7.3 5.8 4.9 4.5 4.2 1.4 2.5 4.0 7.5 7.3 7.1 6.7 7.5 8.4 7.2 6.6 5.4 4.0 4.4 4.2 4.9 5.5 6.1 5.3 5.4 5.7 5.3 5.5 4.8 5.7 5.5 4.1
7.6 6.6 7.2 6.4 6.7 7.0 6.1 6.4 5.9 5.6 5.2 6.2 5.9 4.9 4.6 2.6 0.7 1.2 3.3 8.0 7.7 6.0 5.1 6.7 6.2 5.4 3.2 5.4 4.7 3.9 3.6 3.1 3.6 5.1 4.5 4.7 4.7 5.5 6.2 5.8 4.7 4.0 4.2
7.9 7.7 7.4 6.7 6.0 5.8 5.3 5.5 5.8 5.0 5.2 5.7 6.8 6.0 5.0 3.2 0.4 0.8 3.6 7.4 7.0 5.7 4.6 2.5 5.1 4.6 2.6 3.5 6.7 5.3 4.5 4.2 4.0 4.4 4.7 5.2 5.9 6.4 6.4 5.9 6.0 5.9 6.2
5.0 4.3 3.5 6.2 6.6 6.1 4.9 5.3 5.6 5.6 6.2 6.4 6.3 5.7 3.0 3.7 -0.5 0.0 2.3 7.6 7.0 6.3 5.3 4.2 1.7 1.8 1.7 2.4 7.7 7.8 6.9 7.2 6.9 5.2 4.9 4.9 6.0 6.9 6.9 5.6 5.4 6.7 6.6
4.2 1.5 0.8 2.1 5.0 4.1 4.2 4.4 5.2 5.8 6.4 5.7 4.9 4.3 3.6 1.1 1.3 -0.2 0.7 7.1 7.8 7.9 7.6 5.2 4.0 0.9 0.7 1.7 3.7 5.4 4.9 4.7 6.7 6.7 6.9 6.9 6.8 6.2 5.5 5.5 4.9 5.0 5.5
2.2 0.7 -0.1 -0.5 1.1 1.8 2.6 2.7 4.3 5.1 5.6 5.2 4.0 2.6 2.3 1.6 -0.7 -0.4 0.1 1.4 4.3 6.6 5.7 4.8 3.2 0.9 1.0 1.8 4.4 3.0 3.1 2.7 5.2 6.2 6.5 6.6 6.4 6.8 6.2 6.5 6.5 6.0 6.6
1.4 0.6 -0.0 0.8 1.0 1.4 1.6 1.7 1.9 2.3 2.4 2.2 1.8 1.7 1.7 1.7 1.5 0.3 0.3 1.8 2.5 4.2 3.7 2.1 1.9 1.5 1.5 4.9 4.9 4.4 3.3 5.1 6.6 6.5 6.6 6.9 6.6 7.2 7.6 7.5 7.2 7.5 7.5
1.6 1.0 0.7 0.4 0.6 0.6 1.0 1.5 2.1 2.0 1.9 1.6 1.6 1.8 2.2 2.8 3.3 3.1 5.2 5.0 3.7 4.7 3.7 3.6 4.5 4.7 4.5 7.0 5.9 7.2 6.5 6.1 6.2 6.7 7.1 7.7 7.7 7.3 7.0 6.8 6.9 6.1 6.7
2.3 2.1 2.2 1.2 0.7 -0.0 -0.7 0.3 1.0 -0.1 1.5 2.2 2.3 2.7 3.2 3.3 2.9 0.4 2.2 5.9 6.4 5.2 5.1 5.8 5.4 5.7 6.7 7.2 7.8 8.1 7.6 7.4 7.4 7.3 7.0 7.0 7.2 7.3 7.1 7.4 6.8 6.4 6.7
4.2 4.5 3.7 2.9 2.5 2.4 2.0 0.9 -1.5 -1.5 -1.8 -1.2 -0.1 2.8 0.8 -0.6 -1.2 -0.4 0.5 1.1 1.7 0.4 5.9 6.4 7.8 8.2 7.9 7.7 8.0 7.7 7.2 7.2 6.8 7.3 7.4 7.1 7.1 6.8 6.3 6.7 7.3 6.9 6.8
7.0 5.8 6.4 7.5 6.8 6.3 5.9 5.1 3.8 1.4 -1.6 -1.7 -1.5 -1.2 -0.8 -0.1 0.2 0.5 -0.1 -0.8 1.0 3.0 6.1 7.2 8.0 8.0 8.0 7.9 7.9 7.6 6.9 6.5 6.8 7.6 7.8 7.9 7.4 7.6 7.0 6.8 7.4 7.0 7.1
7.7 5.6 8.5 8.7 8.7 8.4 8.2 7.7 6.6 6.6 6.3 4.7 0.7 3.2 -0.5 0.3 0.3 0.0 -0.3 0.8 6.3 3.7 5.6 7.3 8.0 8.1 8.1 8.0 8.0 7.8 7.5 7.1 7.5 7.9 7.8 7.9 7.9 7.6 7.0 7.2 7.0 6.7 5.8
7.7 8.7 9.0 8.9 8.8 8.7 8.9 8.9 9.0 8.5 8.0 6.4 5.0 2.4 0.8 0.6 0.7 0.6 0.5 5.0 7.1 7.5 8.3 8.4 8.1 8.5 8.4 8.6 7.8 7.5 7.7 7.4 6.5 7.1 7.1 7.4 7.6 7.6 6.6 7.7 7.2 6.8 5.6
7.8 6.1 8.6 8.8 8.7 9.0 9.1 9.0 9.0 8.6 8.3 7.9 7.9 8.0 5.7 4.9 5.9 6.2 5.6 6.7 7.6 8.5 8.7 8.8 8.7 7.9 8.1 8.2 7.9 8.2 8.2 7.6 7.3 7.4 7.2 6.9 7.3 7.9 7.6 7.4 7.4 7.4 6.5
9.3 8.7 6.7 9.2 9.2 9.2 9.1 9.0 9.0 9.0 8.8 8.9 7.9 6.8 5.1 7.2 8.7 8.4 7.9 7.6 8.4 9.1 8.9 8.7 9.0 8.6 8.5 7.7 7.7 7.9 8.2 8.5 7.8 7.5 7.7 7.5 7.5 7.7 7.7 7.5 7.6 7.6 7.4
9.3 9.0 9.1 9.1 9.1 9.1 9.0 9.2 9.1 9.1 9.1 9.0 8.0 5.3 1.7 7.0 8.9 8.8 9.0 9.1 9.2 8.9 9.2 8.9 9.3 9.1 8.8 8.2 7.5 7.4 8.0 8.7 7.9 7.4 7.5 7.6 7.8 7.7 7.6 7.6 7.6 7.6 7.4
9.3 9.3 9.2 9.1 9.0 7.0 8.7 8.1 9.1 9.1 9.1 8.8 7.8 6.7 6.5 8.7 8.9 9.1 9.1 9.2 9.2 9.1 9.3 9.1 8.9 8.9 9.4 9.3 9.3 8.9 9.0 8.4 8.4 8.4 8.1 7.9 7.8 7.8 7.7 7.6 7.8 7.8 7.5
9.4 7.6 7.6 7.8 7.7 8.3 9.0 6.7 6.6 7.5 7.1 9.2 9.1 7.3 8.4 9.1 8.2 7.7 8.8 9.2 9.2 9.2 9.3 9.0 9.0 9.5 9.4 9.4 9.5 9.5 9.3 9.2 9.1 9.3 9.2 8.3 8.0 7.9 8.0 7.9 8.1 8.2 8.0
8.1 8.4 7.9 7.6 7.7 7.2 8.7 8.8 9.0 7.4 8.1 9.0 8.2 6.9 9.0 9.2 8.4 8.7 9.4 9.2 8.9 8.1 7.2 8.6 9.0 9.2 9.3 9.0 9.3 9.4 8.9 8.1 8.2 8.6 8.9 8.6 8.1 7.8 8.3 8.5 8.2 8.2 8.2
7.4 9.1 7.8 8.0 7.4 7.5 7.4 8.3 8.3 8.3 8.9 8.8 8.7 9.1 9.2 9.1 9.0 9.1 8.4 8.8 8.7 9.0 8.1 6.3 6.5 6.8 6.8 6.8 2.0 4.8 7.2 7.6 7.9 8.0 7.9 8.2 7.8 8.0 8.6 8.6 8.6 8.6 8.6
Wind_Speed
7 6 5 6 6 4 3 8 9 4 6 8 9 11 11 12 11 9 8 9 9 7 3 2 4 4 3 2 2 3 1 2 1 2 2 5 5 7 9 12 13 13 15
7 6 5 9 6 4 6 8 6 5 5 7 9 10 9 9 10 11 11 12 12 11 9 8 9 7 9 7 5 5 5 4 2 4 2 3 5 6 6 7 10 15 18
8 7 6 10 7 3 6 6 7 5 7 8 9 9 9 10 10 10 10 10 10 10 10 11 11 9 8 6 6 5 5 4 3 3 2 2 2 2 5 6 6 11 15
9 8 8 8 7 4 7 7 6 5 6 8 8 8 9 11 9 8 8 9 10 10 9 9 9 8 6 7 6 6 5 5 4 4 4 3 3 2 3 3 4 5 5
8 8 8 9 8 5 8 6 5 5 8 6 8 8 10 9 7 6 6 7 8 8 8 9 9 12 15 11 5 5 5 4 4 4 3 2 2 2 2 2 3 3 5
7 7 8 9 8 6 8 6 5 6 5 8 8 9 9 7 12 13 9 4 4 5 6 7 9 12 12 13 14 16 10 3 5 4 3 4 2 2 2 3 3 2 2
6 7 8 11 7 7 8 6 5 6 5 6 9 8 8 6 13 14 15 6 6 8 9 7 9 8 6 7 10 13 15 14 12 7 7 5 4 2 3 3 2 4 3
5 5 7 9 8 7 8 6 5 6 5 6 8 8 7 7 14 15 15 7 9 11 10 7 7 8 8 6 9 9 9 9 8 6 6 5 4 4 4 4 5 5 4
4 3 3 5 7 6 9 7 4 5 5 5 6 7 7 7 11 11 10 8 8 8 8 10 8 8 11 11 7 7 6 6 10 13 12 10 9 11 10 3 4 4 3
7 5 8 4 7 6 9 7 5 4 4 7 8 8 10 6 12 11 8 5 7 6 7 7 12 8 10 12 4 5 5 3 4 4 2 3 4 10 17 9 6 3 3
7 9 8 9 5 6 6 5 5 5 6 7 7 7 8 9 9 12 14 5 1 4 6 6 4 8 9 9 11 6 4 5 2 2 2 2 3 6 6 10 11 6 4
8 8 7 8 6 6 8 5 4 7 8 6 6 7 4 5 10 10 12 11 10 7 7 5 3 4 7 9 6 5 6 6 4 5 4 4 4 4 3 4 7 9 9
8 7 7 8 8 7 7 6 6 7 6 5 4 4 3 3 3 7 11 10 11 7 5 6 5 3 6 3 1 5 7 5 3 4 4 3 3 1 2 2 5 4 4
8 8 7 8 8 7 6 5 5 4 4 4 4 3 2 1 1 2 4 5 5 5 5 4 2 4 5 1 2 1 4 4 4 3 3 2 1 3 3 3 1 4 3
8 7 8 7 7 6 6 5 5 4 3 4 3 3 1 1 2 4 5 3 0 2 4 2 3 5 5 4 3 3 3 2 3 3 4 3 3 2 2 2 3 3 1
8 7 6 6 6 6 7 6 12 9 9 9 6 2 2 4 6 7 6 6 7 8 3 6 3 1 2 3 2 3 4 1 4 4 3 3 3 4 4 4 2 3 2
8 8 7 7 7 7 7 7 6 6 8 7 7 8 8 7 6 5 7 9 7 5 5 6 2 3 3 3 3 4 6 4 2 3 3 1 3 1 2 3 2 3 2
8 10 7 7 7 7 7 8 8 7 6 5 3 4 6 4 3 4 6 6 4 4 5 5 3 3 3 3 3 4 4 2 3 1 3 3 2 3 3 3 3 3 4
8 6 4 4 5 5 4 5 5 7 8 6 5 4 4 3 2 3 3 4 6 7 5 3 3 1 2 0 3 3 1 1 1 2 3 4 3 2 4 2 1 1 2
7 10 7 5 5 5 5 6 5 4 5 7 7 7 6 5 4 5 5 5 7 6 4 1 1 4 3 2 3 2 1 3 4 3 4 4 4 1 4 4 4 2 4
6 5 4 5 5 5 5 5 3 3 4 3 6 6 13 7 6 8 8 8 7 3 2 3 3 4 0 4 4 4 3 3 4 3 3 3 3 3 3 3 3 4 5
6 6 6 7 4 2 3 2 2 1 1 3 8 7 11 5 5 6 2 2 2 3 1 1 2 3 4 3 1 3 4 3 4 6 5 4 3 3 3 4 4 4 4
5 3 3 3 4 4 2 4 4 3 5 3 3 8 6 5 5 6 5 5 2 1 3 4 1 3 9 6 5 4 4 4 5 5 2 2 2 3 3 4 5 5 4
4 9 7 5 4 3 3 3 4 4 4 8 5 9 6 3 5 4 4 2 3 4 6 7 8 8 6 6 7 8 11 13 13 9 6 1 3 5 5 5 6 6 5
6 8 9 7 3 3 3 4 4 6 4 1 4 4 8 3 6 5 6 3 3 5 6 13 13 9 11 15 13 13 8 6 10 8 5 5 5 6 8 7 8 7 6
4 5 3 4 3 5 6 3 3 4 2 3 3 3 3 4 7 4 1 6 5 3 5 5 11 8 14 22 28 25 24 16 18 17 13 9 5 6 7 9 10 8 9
Wind_Direction
162 167 155 124 95 72 49 75 70 20 22 22 37 31 37 28 24 26 37 43 47 46 66 207 266 256 197 184 307 282 59 64 169 117 90 61 49 63 55 54 51 54 52
137 141 137 100 89 73 68 69 88 61 54 40 56 46 41 44 44 39 39 31 34 41 42 49 46 42 49 39 50 62 68 53 57 109 83 72 67 59 65 68 50 53 58
144 158 180 118 107 81 82 85 77 48 57 39 63 62 58 53 49 53 52 52 54 48 41 38 31 43 50 50 45 43 57 55 54 97 111 93 125 132 81 66 60 59 57
160 173 122 119 115 104 97 84 86 63 65 59 61 63 63 54 52 62 60 58 59 59 56 52 46 39 43 65 64 59 61 64 54 65 53 62 80 95 94 90 69 50 60
158 154 135 130 125 132 97 85 80 64 79 61 59 52 61 63 38 34 77 82 85 81 69 69 64 64 59 49 59 47 63 74 76 79 76 75 52 51 57 74 85 78 54
161 154 142 134 133 126 117 106 99 81 69 78 69 68 66 58 20 21 14 78 89 105 114 120 104 80 65 66 66 59 51 102 105 110 128 107 107 112 125 117 135 189 109
172 175 152 135 147 137 128 125 119 104 104 90 88 77 76 65 20 15 8 59 48 53 44 45 75 53 77 85 50 45 38 39 59 62 70 54 80 74 130 158 149 88 109
178 72 135 142 160 150 128 115 139 123 96 87 93 94 88 54 27 11 349 74 65 49 28 55 68 56 25 47 84 71 57 46 38 62 55 52 53 29 69 79 111 118 129
139 139 144 135 160 160 131 133 144 126 125 107 97 102 96 68 32 15 1 93 78 74 56 32 37 38 2 2 117 117 117 107 86 91 97 93 78 56 32 181 174 192 166
42 47 24 5 202 153 142 141 141 147 131 94 82 68 49 79 27 13 2 130 129 123 112 84 45 25 13 11 62 79 67 62 121 154 185 211 182 71 39 41 2 338 119
36 33 23 9 45 90 114 127 140 135 100 98 100 79 62 30 36 20 12 60 0 133 118 86 51 11 20 31 47 42 45 337 302 278 200 208 130 76 60 28 18 48 21
58 56 35 35 39 53 80 59 92 118 114 106 97 85 54 44 26 28 34 40 22 68 83 90 89 20 51 39 62 16 349 335 291 259 83 59 45 60 75 64 61 65 70
77 69 58 50 53 43 67 70 72 79 89 89 96 93 48 50 49 44 41 42 49 73 72 79 82 336 314 101 293 299 311 278 288 61 67 77 114 187 179 186 125 110 62
92 78 69 64 58 46 51 53 76 82 96 106 98 99 111 86 77 186 110 89 77 86 118 153 207 249 222 116 317 219 30 5 13 28 45 41 103 46 42 351 170 198 155
102 99 90 85 82 75 61 46 68 51 79 107 97 103 110 153 101 61 42 14 325 138 237 173 213 229 206 194 119 39 74 329 43 17 13 11 31 34 102 357 339 323 356
123 121 117 112 112 109 102 84 51 58 61 71 69 109 112 87 95 59 23 6 33 30 294 274 192 351 26 44 78 152 151 158 30 4 24 15 12 40 1 349 328 323 340
118 142 141 144 135 134 123 117 112 65 62 60 65 53 53 91 59 38 12 349 299 338 259 287 65 73 45 41 7 28 77 63 27 308 351 21 0 158 267 277 306 290 291
155 177 155 157 157 156 156 142 147 147 126 112 49 89 72 73 49 34 358 325 259 231 250 275 95 84 42 35 20 13 33 142 204 36 346 305 316 339 318 323 315 43 14
175 175 141 100 92 106 125 121 120 123 122 129 141 194 159 176 215 253 296 278 297 286 221 132 134 96 136 308 81 79 53 350 349 11 343 305 297 349 319 279 24 150 171
74 80 110 142 168 151 125 109 113 137 161 164 178 145 160 174 214 211 210 233 268 291 352 342 141 154 142 141 150 136 281 241 216 221 240 263 263 229 281 312 327 286 216
129 158 251 157 124 108 97 86 65 111 122 106 106 139 165 194 241 213 202 208 226 265 316 10 354 4 192 178 186 180 214 268 291 262 224 250 257 235 261 299 289 269 267
144 188 196 104 113 112 64 140 188 148 210 178 146 163 163 210 253 296 301 223 282 207 167 47 303 318 345 358 28 178 221 245 266 268 238 216 241 276 259 238 254 262 276
181 153 101 133 95 110 217 308 16 334 312 344 72 150 181 209 218 236 246 251 212 165 208 152 174 261 264 260 222 215 258 248 245 264 332 347 319 287 259 247 247 261 258
166 95 90 77 63 336 45 27 319 354 340 307 314 166 198 219 242 237 243 239 244 245 249 212 213 233 244 264 266 237 230 233 244 258 264 290 310 300 279 275 255 261 273
56 54 50 29 324 272 317 339 5 357 310 290 43 17 278 3 338 359 331 298 314 20 33 355 321 253 246 227 228 249 276 217 225 250 244 209 248 273 284 280 283 292 291
135 90 88 60 26 355 325 312 265 266 308 3 293 275 19 297 265 291 54 43 341 38 5 19 28 322 20 357 9 6 354 232 212 221 222 229 244 258 268 270 261 258 259